• în Republica Moldova
  • Lista ţărilor
  • Pe 7 zile
  • Temperatura apei
  • Hartă satelitară
  • Meteo pe hartă
  • Widget-uri
  • user-avatar
    Intrare

    Meteo pe oră la Yulara

    Astăzi, 20 Ianuarie, Sâmbătă

    Timp Temperatura Precipitaţii Vânt Presiune Umiditate
    00:00 +37°C° 0 mm 5 m/s 714 mmHg 23%
    01:00 +36°C° 0 mm 5 m/s 714 mmHg 26%
    02:00 +35°C° 0 mm 4 m/s 714 mmHg 30%
    03:00 +34°C° 0 mm 3 m/s 714 mmHg 32%
    04:00 +33°C° 0 mm 3 m/s 714 mmHg 36%
    05:00 +32°C° 0 mm 2 m/s 714 mmHg 39%
    06:00 +31°C° 0 mm 2 m/s 715 mmHg 42%
    07:00 +32°C° 0 mm 2 m/s 715 mmHg 39%
    08:00 +35°C° 0 mm 2 m/s 715 mmHg 36%
    09:00 +33°C° 0 mm 0 m/s 716 mmHg 33%
    10:00 +37°C° 0 mm 2 m/s 716 mmHg 28%
    11:00 +39°C° 0 mm 3 m/s 715 mmHg 22%
    12:00 +41°C° 0 mm 4 m/s 715 mmHg 17%
    13:00 +42°C° 0 mm 4 m/s 715 mmHg 16%
    14:00 +42°C° 0 mm 4 m/s 714 mmHg 15%
    15:00 +42°C° 0 mm 4 m/s 714 mmHg 16%
    16:00 +42°C° 0 mm 5 m/s 714 mmHg 16%
    17:00 +42°C° 0 mm 5 m/s 714 mmHg 15%
    18:00 +42°C° 0 mm 5 m/s 714 mmHg 15%
    19:00 +41°C° 0 mm 4 m/s 714 mmHg 16%
    20:00 +40°C° 0 mm 4 m/s 714 mmHg 17%
    21:00 +38°C° 0 mm 4 m/s 714 mmHg 18%
    22:00 +37°C° 0 mm 4 m/s 714 mmHg 19%
    23:00 +37°C° 0 mm 4 m/s 714 mmHg 20%

    Mâine, 21 Ianuarie, Duminică

    Timp Temperatura Precipitaţii Vânt Presiune Umiditate
    00:00 +36°C° 0 mm 4 m/s 714 mmHg 20%
    01:00 +35°C° 0 mm 3 m/s 713 mmHg 21%
    02:00 +34°C° 0 mm 3 m/s 713 mmHg 22%
    03:00 +34°C° 0 mm 2 m/s 713 mmHg 23%
    04:00 +32°C° 0 mm 2 m/s 713 mmHg 25%
    05:00 +32°C° 0 mm 2 m/s 713 mmHg 27%
    06:00 +31°C° 0 mm 1 m/s 714 mmHg 29%
    07:00 +34°C° 0 mm 2 m/s 714 mmHg 25%
    08:00 +36°C° 0 mm 2 m/s 714 mmHg 22%
    09:00 +38°C° 0 mm 3 m/s 715 mmHg 19%
    10:00 +40°C° 0 mm 3 m/s 714 mmHg 17%
    11:00 +42°C° 0 mm 3 m/s 714 mmHg 15%
    12:00 +43°C° 0 mm 4 m/s 714 mmHg 13%
    13:00 +44°C° 0 mm 4 m/s 713 mmHg 12%
    14:00 +46°C° 0 mm 5 m/s 712 mmHg 11%
    15:00 +46°C° 0 mm 5 m/s 712 mmHg 10%
    16:00 +46°C° 0 mm 6 m/s 711 mmHg 9%
    17:00 +46°C° 0 mm 6 m/s 711 mmHg 9%
    18:00 +46°C° 0 mm 7 m/s 711 mmHg 9%
    19:00 +44°C° 0 mm 6 m/s 711 mmHg 10%
    20:00 +42°C° 0 mm 5 m/s 711 mmHg 10%
    21:00 +40°C° 0 mm 5 m/s 712 mmHg 11%
    22:00 +39°C° 0 mm 5 m/s 712 mmHg 12%
    23:00 +37°C° 0 mm 5 m/s 712 mmHg 13%

    Poimâine, 22 Ianuarie, Luni

    Timp Temperatura Precipitaţii Vânt Presiune Umiditate
    00:00 +37°C° 0 mm 5 m/s 712 mmHg 14%
    01:00 +36°C° 0 mm 5 m/s 712 mmHg 19%
    02:00 +35°C° 0 mm 6 m/s 712 mmHg 23%
    03:00 +34°C° 0 mm 7 m/s 712 mmHg 27%
    04:00 +33°C° 0 mm 7 m/s 712 mmHg 30%
    05:00 +33°C° 0 mm 6 m/s 712 mmHg 32%
    06:00 +32°C° 0 mm 6 m/s 713 mmHg 34%
    07:00 +34°C° 0 mm 6 m/s 713 mmHg 30%
    08:00 +36°C° 0 mm 5 m/s 713 mmHg 25%
    09:00 +39°C° 0 mm 5 m/s 714 mmHg 20%
    10:00 +40°C° 0 mm 4 m/s 714 mmHg 17%
    11:00 +42°C° 0 mm 3 m/s 713 mmHg 14%
    12:00 +42°C° 0 mm 2 m/s 713 mmHg 11%
    13:00 +44°C° 0 mm 3 m/s 712 mmHg 10%
    14:00 +45°C° 0 mm 4 m/s 712 mmHg 9%
    15:00 +47°C° 0 mm 5 m/s 711 mmHg 8%
    16:00 +46°C° 0 mm 5 m/s 711 mmHg 8%
    17:00 +46°C° 0 mm 6 m/s 711 mmHg 8%
    18:00 +46°C° 0 mm 6 m/s 710 mmHg 8%
    19:00 +44°C° 0 mm 6 m/s 711 mmHg 9%
    20:00 +42°C° 0 mm 5 m/s 711 mmHg 10%
    21:00 +41°C° 0 mm 5 m/s 711 mmHg 11%
    22:00 +40°C° 0 mm 6 m/s 712 mmHg 12%
    23:00 +40°C° 0 mm 6 m/s 712 mmHg 14%

    23 Ianuarie, Marţi

    Timp Temperatura Precipitaţii Vânt Presiune Umiditate
    00:00 +39°C° 0 mm 7 m/s 712 mmHg 15%
    01:00 +38°C° 0 mm 7 m/s 712 mmHg 17%
    02:00 +37°C° 0 mm 8 m/s 712 mmHg 19%
    03:00 +35°C° 0 mm 8 m/s 711 mmHg 22%
    04:00 +34°C° 0 mm 7 m/s 712 mmHg 22%
    05:00 +34°C° 0 mm 7 m/s 712 mmHg 23%
    06:00 +33°C° 0 mm 6 m/s 712 mmHg 24%
    07:00 +34°C° 0 mm 6 m/s 713 mmHg 22%
    08:00 +36°C° 0 mm 7 m/s 713 mmHg 20%
    09:00 +39°C° 0 mm 7 m/s 713 mmHg 18%
    10:00 +40°C° 0 mm 6 m/s 713 mmHg 17%
    11:00 +41°C° 0 mm 4 m/s 713 mmHg 16%
    12:00 +42°C° 0 mm 3 m/s 712 mmHg 15%
    13:00 +43°C° 0 mm 4 m/s 712 mmHg 13%
    14:00 +44°C° 0 mm 4 m/s 711 mmHg 12%
    15:00 +46°C° 0 mm 5 m/s 711 mmHg 11%
    16:00 +46°C° 0 mm 5 m/s 711 mmHg 11%
    17:00 +45°C° 0 mm 6 m/s 711 mmHg 12%
    18:00 +45°C° 0 mm 6 m/s 710 mmHg 12%
    19:00 +44°C° 0 mm 6 m/s 711 mmHg 13%
    20:00 +42°C° 0 mm 6 m/s 711 mmHg 14%
    21:00 +40°C° 0 mm 6 m/s 712 mmHg 15%
    22:00 +40°C° 0 mm 6 m/s 712 mmHg 16%
    23:00 +39°C° 0 mm 6 m/s 712 mmHg 17%

    24 Ianuarie, Miercuri

    Timp Temperatura Precipitaţii Vânt Presiune Umiditate
    00:00 +38°C° 0 mm 6 m/s 712 mmHg 18%
    01:00 +36°C° 0 mm 7 m/s 711 mmHg 18%
    02:00 +36°C° 0 mm 7 m/s 711 mmHg 19%
    03:00 +35°C° 0 mm 7 m/s 710 mmHg 20%
    04:00 +34°C° 0 mm 7 m/s 711 mmHg 21%
    05:00 +34°C° 0 mm 6 m/s 711 mmHg 21%
    06:00 +33°C° 0 mm 6 m/s 711 mmHg 22%
    07:00 +35°C° 0 mm 7 m/s 712 mmHg 19%
    08:00 +37°C° 0 mm 8 m/s 712 mmHg 17%
    09:00 +39°C° 0 mm 9 m/s 713 mmHg 15%
    10:00 +41°C° 0 mm 8 m/s 712 mmHg 14%
    11:00 +43°C° 0 mm 7 m/s 712 mmHg 13%
    12:00 +44°C° 0 mm 6 m/s 711 mmHg 12%
    13:00 +45°C° 0 mm 6 m/s 711 mmHg 12%
    14:00 +46°C° 0 mm 5 m/s 710 mmHg 11%
    15:00 +46°C° 0 mm 5 m/s 709 mmHg 11%
    16:00 +46°C° 0 mm 5 m/s 709 mmHg 11%
    17:00 +45°C° 0 mm 6 m/s 709 mmHg 11%
    18:00 +45°C° 0 mm 6 m/s 709 mmHg 11%
    19:00 +44°C° 0 mm 6 m/s 710 mmHg 12%
    20:00 +42°C° 0 mm 6 m/s 710 mmHg 13%
    21:00 +40°C° 0 mm 6 m/s 710 mmHg 14%
    22:00 +40°C° 0 mm 6 m/s 710 mmHg 15%
    23:00 +39°C° 0 mm 7 m/s 710 mmHg 16%

    25 Ianuarie, Joi

    Timp Temperatura Precipitaţii Vânt Presiune Umiditate
    00:00 +38°C° 0 mm 7 m/s 710 mmHg 17%
    01:00 +36°C° 0 mm 7 m/s 709 mmHg 18%
    02:00 +35°C° 0 mm 7 m/s 709 mmHg 19%
    03:00 +35°C° 0 mm 6 m/s 709 mmHg 20%
    04:00 +34°C° 0 mm 6 m/s 709 mmHg 21%
    05:00 +34°C° 0 mm 6 m/s 710 mmHg 21%
    06:00 +33°C° 0 mm 5 m/s 710 mmHg 22%
    07:00 +35°C° 0 mm 5 m/s 711 mmHg 21%
    08:00 +37°C° 0 mm 5 m/s 711 mmHg 20%
    09:00 +40°C° 0 mm 6 m/s 711 mmHg 19%
    10:00 +41°C° 0 mm 5 m/s 711 mmHg 18%
    11:00 +42°C° 0 mm 4 m/s 710 mmHg 18%
    12:00 +43°C° 0 mm 3 m/s 710 mmHg 17%
    13:00 +44°C° 0 mm 3 m/s 709 mmHg 15%
    14:00 +44°C° 0 mm 3 m/s 709 mmHg 14%
    15:00 +45°C° 0 mm 3 m/s 708 mmHg 12%
    16:00 +45°C° 0 mm 4 m/s 708 mmHg 12%
    17:00 +45°C° 0 mm 4 m/s 708 mmHg 12%
    18:00 +46°C° 0 mm 5 m/s 708 mmHg 11%
    19:00 +45°C° 0 mm 5 m/s 709 mmHg 12%
    20:00 +44°C° 0 mm 6 m/s 709 mmHg 14%
    21:00 +42°C° 0 mm 6 m/s 709 mmHg 15%
    22:00 +41°C° 0 mm 5 m/s 709 mmHg 17%
    23:00 +40°C° 0 mm 5 m/s 709 mmHg 19%
    Arată mai mult